User: anonymous   Login
Location: Caltech
(34.1382°N, 118.1253°W)
Time: 06:03:35
(UTC-07:00)
Language:

RS-15 - Orbit

View from above orbital plane
View from above orbital plane
View from above satellite
View from above satellite

Ground track
Ground track

The orbit data is extracted from the following two-line orbital elements,

1 23439U 94085A   15121.17940336 -.00000033  00000-0  28060-3 0  9996
2 23439 064.8149 037.4862 0152613 021.3973 339.3242 11.27563119837851
Epoch (UTC): 01 May 2015 04:18:20
Eccentricity: 0.0152613
inclination: 64.8149°
perigee height: 1894 km
apogee height: 2150 km
right ascension of ascending node: 37.4862°
argument of perigee: 21.3973°
revolutions per day: 11.27563119
mean anomaly at epoch: 339.3242°
orbit number at epoch: 83785

The dashed part of the orbit path shows where the satellite is in the earth's shadow,  

DLR